Tracking 27086 objects as of 22-Mar-2023
HD Live streaming from Space Station
objects crossing your sky now

STARLINK-5369

Track STARLINK-5369 now!
10-day predictions
STARLINK-5369 is classified as:


NORAD ID: 54837
Int'l Code: 2022-177T
Perigee: 565.1 km
Apogee: 567.2 km
Inclination: 43.0 °
Period: 95.8 minutes
Semi major axis: 6937 km
RCS: Unknown
Launch date: December 28, 2022
Source: United States (US)
Launch site: AIR FORCE EASTERN TEST RANGE (AFETR)
Your satellite tracking list
Your tracking list is empty




NASA's NSSDC Master Catalog

Two Line Element Set (TLE):
1 54837U 22177T   23080.87454236  .00004465  00000-0  34530-3 0  9995
2 54837  43.0002 262.2803 0001535 268.4671  91.5995 15.02548504 13926
Source of the keplerian elements: AFSPC